DW5868 Weather Reports


time (UTC)temp
C
wind
direction
speed
KPH
gust
KPH
rain 1hr
cm
rain 24hr
cm
rain mn
cm
humidity
%
barometer
mb
20260831010030 18 185 4.8 22.5 0.00 0.00 0.00 29 1005.6
20260831004520 19 241 6.4 27.4 0.00 0.00 0.00 30 1005.6
20260831003020 19 220 3.2 19.3 0.00 0.00 0.00 30 1005.6
20260831001532 20 192 4.8 16.1 0.00 0.00 0.00 29 1005.5
20260831000019 20 206 4.8 22.5 0.00 0.00 0.00 29 1005.7
20260830234535 20 258 8.0 22.5 0.00 0.00 0.00 28 1005.7
20260830233021 20 296 9.7 22.5 0.00 0.00 0.00 27 1005.7
20260830231517 20 209 6.4 20.9 0.00 0.00 0.00 27 1005.9
20260830230029 20 246 4.8 19.3 0.00 0.00 0.00 27 1006.0
20260830224523 20 287 6.4 25.7 0.00 0.00 0.00 27 1006.2
20260830223018 20 298 11.3 25.7 0.00 0.00 0.00 24 1006.4
20260830221509 21 243 4.8 25.7 0.00 0.00 0.00 24 1006.8
20260830220023 21 294 8.0 22.5 0.00 0.00 0.00 21 1007.0
20260830214508 21 277 3.2 30.6 0.00 0.00 0.00 22 1007.2
20260830213008 20 280 6.4 30.6 0.00 0.00 0.00 20 1007.2
20260830211507 21 265 4.8 29.0 0.00 0.00 0.00 19 1007.4
20260830210006 21 199 4.8 22.5 0.00 0.00 0.00 17 1007.5
20260830204510 21 275 6.4 20.9 0.00 0.00 0.00 16 1007.6
20260830203007 21 199 6.4 16.1 0.00 0.00 0.00 16 1007.8
20260830201519 21 276 6.4 22.5 0.00 0.00 0.00 15 1007.7
20260830200006 21 271 6.4 17.7 0.00 0.00 0.00 16 1007.7
20260830194505 22 303 3.2 11.3 0.00 0.00 0.00 15 1007.8
20260830193005 21 252 4.8 17.7 0.00 0.00 0.00 17 1007.9
20260830191504 21 195 3.2 14.5 0.00 0.00 0.00 19 1008.1
20260830190101 21 129 3.2 12.9 0.00 0.00 0.00 16 1008.3
20260830184559 20 114 8.0 16.1 0.00 0.00 0.00 15 1008.5
20260830183101 20 69 3.2 9.7 0.00 0.00 0.00 15 1008.6
20260830181609 19 35 4.8 12.9 0.00 0.00 0.00 16 1008.6
20260830180108 19 163 3.2 12.9 0.00 0.00 0.00 16 1008.7
20260830174606 18 137 1.6 14.5 0.00 0.00 0.00 18 1008.8
20260830173109 18 74 3.2 11.3 0.00 0.00 0.00 18 1008.7
20260830171553 18 80 4.8 12.9 0.00 0.00 0.00 18 1008.7
20260830170051 18 126 3.2 6.4 0.00 0.00 0.00 19 1008.6
20260830164550 17 132 1.6 6.4 0.00 0.00 0.00 19 1008.7
20260830163056 17 140 3.2 11.3 0.00 0.00 0.00 20 1008.8
20260830161550 17 149 3.2 6.4 0.00 0.00 0.00 21 1008.8
20260830160048 17 206 3.2 6.4 0.00 0.00 0.00 21 1008.7
20260830154546 17 165 0.0 4.8 0.00 0.00 0.00 22 1008.6
20260830153047 16 142 1.6 6.4 0.00 0.00 0.00 26 1008.5
20260830151541 16 80 3.2 12.9 0.00 0.00 0.00 24 1008.4
20260830150038 15 56 3.2 11.3 0.00 0.00 0.00 32 1008.3
20260830144540 13 315 4.8 16.1 0.00 0.00 0.00 33 1008.3
20260830143031 13 275 6.4 19.3 0.00 0.00 0.00 34 1008.2
20260830141528 12 292 3.2 14.5 0.00 0.00 0.00 35 1007.6
20260830140027 12 256 8.0 9.7 0.00 0.00 0.00 35 1007.2
20260830134522 -17 0.0 0.0 0.00 0.00 0.00 1007.1
20260830133035 -17 0.0 0.0 0.00 0.00 0.00 1007.0
20260830131515 -17 0.0 0.0 0.00 0.00 0.00 1007.0
20260830130011 -17 0.0 0.0 0.00 0.00 0.00 1007.0
20260830124511 -17 0.0 0.0 0.00 0.00 0.00 1007.3
20260830123002 -17 0.0 0.0 0.00 0.00 0.00 1007.7
20260830121501 11 229 4.8 14.5 0.00 0.00 0.00 34 1007.8
20260830114602 11 246 4.8 12.9 0.00 0.00 0.00 34 1007.9
20260830113100 11 271 6.4 12.9 0.00 0.00 0.00 36 1008.0
20260830111601 12 219 4.8 16.1 0.00 0.00 0.00 37 1007.8
20260830110110 12 245 4.8 29.0 0.00 0.00 0.00 37 1007.8
20260830104557 11 300 6.4 19.3 0.00 0.00 0.00 41 1007.7
20260830103055 11 214 6.4 27.4 0.00 0.00 0.00 44 1007.8
20260830101553 11 232 4.8 16.1 0.00 0.00 0.00 43 1007.8
20260830100051 11 275 3.2 16.1 0.00 0.00 0.00 46 1007.7
20260830094608 11 275 6.4 14.5 0.00 0.00 0.00 49 1007.5
20260830093048 11 269 6.4 19.3 0.00 0.00 0.00 48 1007.6
20260830091547 11 264 4.8 16.1 0.00 0.00 0.00 48 1007.6
20260830090049 11 246 4.8 16.1 0.00 0.00 0.00 54 1007.4
20260830084544 11 230 3.2 14.5 0.00 0.00 0.00 52 1007.5
20260830083043 11 267 6.4 19.3 0.00 0.00 0.00 54 1007.5
20260830081541 11 270 8.0 22.5 0.00 0.00 0.00 56 1007.6
20260830080047 11 277 8.0 16.1 0.00 0.00 0.00 55 1007.8
20260830074538 11 278 9.7 19.3 0.00 0.00 0.00 53 1007.9
20260830073038 11 281 8.0 14.5 0.00 0.00 0.00 56 1007.9
20260830071538 11 262 6.4 14.5 0.00 0.00 0.00 56 1008.1
20260830070041 11 336 4.8 14.5 0.00 0.00 0.00 55 1008.1
20260830064544 11 290 8.0 20.9 0.00 0.00 0.00 55 1008.2
20260830063034 11 282 4.8 19.3 0.00 0.00 0.00 53 1008.3
20260830061534 11 267 6.4 17.7 0.00 0.00 0.00 53 1008.2
20260830060035 11 265 4.8 16.1 0.00 0.00 0.00 54 1008.2
20260830054541 11 271 8.0 22.5 0.00 0.00 0.00 60 1008.4
20260830053034 11 290 9.7 19.3 0.00 0.00 0.00 63 1008.6
20260830051534 11 273 9.7 24.1 0.00 0.00 0.00 64 1008.7
20260830050034 11 272 8.0 17.7 0.00 0.00 0.00 65 1008.8
20260830044533 11 267 4.8 16.1 0.00 0.00 0.00 66 1009.0
20260830043030 11 286 4.8 12.9 0.00 0.00 0.00 66 1008.9
20260830041529 11 270 4.8 11.3 0.00 0.00 0.00 65 1008.9
20260830040027 11 265 3.2 9.7 0.00 0.00 0.00 63 1008.9
20260830034530 12 260 3.2 11.3 0.00 0.00 0.00 62 1008.9
20260830033026 12 296 1.6 9.7 0.00 0.00 0.00 62 1008.8
20260830031525 12 267 0.0 14.5 0.00 0.00 0.00 60 1008.6
20260830030030 12 322 0.0 6.4 0.00 0.00 0.00 59 1008.4
20260830024532 13 279 1.6 11.3 0.00 0.00 0.00 57 1008.3
20260830023027 13 279 1.6 8.0 0.00 0.15 0.00 55 1008.4
20260830021530 14 305 1.6 9.7 0.00 0.15 0.00 52 1008.4
20260830020028 14 172 0.0 9.7 0.00 0.15 0.00 50 1008.3
20260830014526 15 259 1.6 6.4 0.00 0.15 0.00 46 1008.4
20260830013023 16 296 4.8 16.1 0.00 0.15 0.00 44 1008.3
20260830011522 16 219 1.6 35.4 0.00 0.15 0.00 42 1008.4